Regional Weather Roundup
Issued by NWS

Home | Current Version | Previous Version | Text Only | Print | Product List | Glossary Off
Versions: 1 2 3 4 5 6 7 8 9 10 11 12 13 14 15 16 17 18 19 20 21 22 23 24 25 26 27 28 29 30 31 32 33 34 35 36 37 38 39 40 41 42 43 44 45 46 47 48 49 50

000
ASUS43 KLSX 011210
RWRMO

WEATHER SUMMARY FOR MISSOURI
NATIONAL WEATHER SERVICE SPRINGFIELD MO
700 AM CDT SAT OCT 01 2016

NOTE: "FAIR" INDICATES FEW OR NO CLOUDS BELOW 12,000 FEET WITH NO
       SIGNIFICANT WEATHER AND/OR OBSTRUCTIONS TO VISIBILITY.
       CURRENT SKY AND/OR WEATHER CONDITIONS ARE NOT AVAILABLE FOR
       CHILLICOTHE AND FARMINGTON.

MOZ001>031-035>038-043-044-053-054-011300-
...NORTHERN AND WESTERN MISSOURI...

CITY           SKY/WX    TMP DP  RH WIND       PRES   REMARKS
KANSAS CTY INT CLOUDY    55  53  93 W5        30.13S
6HR MIN TEMP:  52; 6HR MAX TEMP:  56;

KANSAS C DTWN  CLOUDY    58  54  86 CALM      30.12S
6HR MIN TEMP:  56; 6HR MAX TEMP:  60;

LEE`S SUMMIT   CLOUDY    56  55  97 CALM      30.13R
6HR MIN TEMP:  53; 6HR MAX TEMP:  57;

ST JOSEPH      CLOUDY    57  55  93 CALM      30.13S
6HR MIN TEMP:  50; 6HR MAX TEMP:  57;

CHILLICOTHE      N/A     60  57  89 CALM      30.12S
6HR MIN TEMP:  57; 6HR MAX TEMP:  61;

KIRKSVILLE     CLOUDY    59  56  89 N6        30.10R
6HR MIN TEMP:  57; 6HR MAX TEMP:  59;


$$
MOZ066>068-077>081-088>096-101>105-011300-
...SOUTHWEST MISSOURI...

CITY           SKY/WX    TMP DP  RH WIND       PRES   REMARKS
SPRINGFIELD    CLEAR     51  48  89 CALM      30.10S
6HR MIN TEMP:  48; 6HR MAX TEMP:  55;

JOPLIN         CLEAR     49  49 100 CALM      30.11S
6HR MIN TEMP:  48; 6HR MAX TEMP:  55;

BRANSON        PTCLDY    54  54 100 SW5       30.12R

$$
MOZ032>034-039>042-045>050-055>058-069>072-011300-
...CENTRAL MISSOURI...

CITY           SKY/WX    TMP DP  RH WIND       PRES   REMARKS
COLUMBIA       CLOUDY    59  57  93 W7        30.09R
6HR MIN TEMP:  57; 6HR MAX TEMP:  60;

JEFFERSON CITY CLOUDY    58  57  97 NW3       30.09R
6HR MIN TEMP:  57; 6HR MAX TEMP:  60;

ROLLA          CLOUDY    56  56 100 W8        30.08S
6HR MIN TEMP:  53; 6HR MAX TEMP:  59;

SEDALIA        CLOUDY    57  55  93 NW3       30.12S
6HR MIN TEMP:  54; 6HR MAX TEMP:  58;

WHITEMAN AFB   PTCLDY    55  55 100 CALM      30.10S
OSAGE BEACH    CLOUDY    59  57  93 CALM      30.11S

$$
MOZ051-052-059>065-011300-
...EAST CENTRAL MISSOURI...

CITY           SKY/WX    TMP DP  RH WIND       PRES   REMARKS
ST LOUIS INTL  CLOUDY    63  59  87 NW7       30.05R
6HR MIN TEMP:  63; 6HR MAX TEMP:  63;

SPIRIT OF STL  CLOUDY    62  60  93 W6        30.04R
6HR MIN TEMP:  62; 6HR MAX TEMP:  63;

ST CHARLES     CLOUDY    62  60  93 NW8       30.04R
6HR MIN TEMP:  61; 6HR MAX TEMP:  63;


$$
MOZ072>076-082>087-097>100-106>115-011300-
...SOUTH CENTRAL AND SOUTHEAST MISSOURI...

CITY           SKY/WX    TMP DP  RH WIND       PRES   REMARKS
CAPE GIRARDEAU CLOUDY    58  57  97 W3        30.05R
6HR MIN TEMP:  57; 6HR MAX TEMP:  62;

FARMINGTON     CLOUDY    60  57  89 NW6       30.07R
6HR MIN TEMP:  60; 6HR MAX TEMP:  61;

POPLAR BLUFF   CLOUDY    58  57  97 NW6       30.08R
6HR MIN TEMP:  53; 6HR MAX TEMP:  60;

WEST PLAINS    CLEAR     50  48  93 SW3       30.12R
6HR MIN TEMP:  50; 6HR MAX TEMP:  58;


$$




USA.gov is the U.S. government's official web portal to all federal, state and local government web resources and services.